Location: Ciserano
(45.5833°N, 9.6000°E)
Time: 23:50:02
(UTC+00:00)

FALCON 9 DEB - Pass Details

Date: 17 June 2021
Orbit: 364 x 377 km, 53.0° (Epoch: 26 July)

Event Time Altitude Azimuth Distance (km) Brightness Sun altitude
Exits shadow 22:13:53 24° 253° (WSW) 850 4.6 -19.3°
Maximum altitude 22:15:35 66° 330° (NNW) 425 3.2 -19.3°
Drops below altitude 10° 22:18:44 10° 54° (NE) 1,414 6.0 -19.5°
Sets 22:20:49 0° 58° (ENE) 2,271 7.0 -19.6°
